Regional Weather Roundup
Issued by NWS State College, PA

Home | Current Version | Previous Version | Text Only | Print | Product List | Glossary Off
Versions: 1 2 3 4 5 6 7 8 9 10 11 12 13 14 15 16 17 18 19 20 21 22 23 24 25 26 27 28 29 30 31 32 33 34 35 36 37 38 39 40 41 42 43 44 45 46 47 48 49 50

000
ASUS41 KCTP 280603
RWRCTP

REGIONAL WEATHER ROUNDUP
NATIONAL WEATHER SERVICE STATE COLLEGE PA
200 AM EDT THU AUG 28 2014

Note: "fair" indicates few or no clouds below 12,000 feet with no
significant weather and/or obstructions to visibility.

* = STATION THAT DOES NOT REPORT PRECIPITATION /E.G. RAIN...SNOW...ETC/
    THUNDER OR FOG.

PAZ002>004-007>009-013>016-020>023-029>032-280700-
WESTERN PENNSYLVANIA

CITY           SKY/WX    TMP DP  RH WIND       PRES   REMARKS
ERIE           FAIR      65  51  60 N10       30.08F
MEADVILLE      FAIR      58  54  86 N6        30.09F
FRANKLIN*      FAIR      57  54  88 CALM      30.09F
NEW CASTLE     FAIR      60  58  93 CALM      30.09F
BEAVER COUNTY  NOT AVBL
BUTLER*        FAIR      61  55  82 N5        30.09F
PITTSBURGH INT MOCLDY    65  58  78 N13       30.07S
PITTSBURGH     FAIR      64  58  80 N6        30.05F
INDIANA*       CLEAR     63  61  94 CALM      30.09F
LATROBE        CLEAR     64  64 100 CALM      30.06F
WASHINGTON CO* FAIR      63  59  88 CALM      30.08S
$$

PAZ004>006-010>012-017>019-024>028-033>037-041-042-045-046-049>053-280700-
CENTRAL PENNSYLVANIA

CITY           SKY/WX    TMP DP  RH WIND       PRES   REMARKS
BRADFORD       FAIR      55  53  93 NW7       30.07F
DUBOIS         FAIR      59  58  96 NW5       30.05F
CLEARFIELD     FAIR      61  58  90 NW6       30.05F
JOHNSTOWN      CLOUDY    62  60  93 NW6       30.06F
ALTOONA        FAIR      67  62  84 N16       30.03F
STATE COLLEGE  FAIR      65  59  80 CALM      30.01F
WILLIAMSPORT   MOCLDY    69  58  67 NW5       29.97F
SELINSGROVE    FAIR      70  65  84 N6        29.96F
FT INDIANTOWN  FAIR      72  70  92 NE5       29.93F
CAPITAL CITY   FAIR      76  66  71 N5        29.93F
HARRISBURG     MOCLDY    76  67  73 N5        29.91F
YORK           FAIR      72  69  90 CALM      29.93
$$

PAZ038>040-043-044-047-048-054-055-060>062-067>071-280700-
EASTERN PENNSYLVANIA

CITY           SKY/WX    TMP DP  RH WIND       PRES   REMARKS
SCRANTON       FAIR      68  56  65 N9        29.97F
MOUNT POCONO   FAIR      64  56  75 NW9       29.97F
ALLENTOWN      FAIR      74  64  71 NE8       29.91F
QUAKERTOWN*    FAIR      73  68  83 MISG      29.91F
READING        FAIR      74  66  76 VRB6      29.90F
LANCASTER      FAIR      72  66  81 N9        29.92S
COATESVILLE    FAIR      73  70  88 N7        29.92S
POTTSTOWN      FAIR      73  67  81 NW3       29.91F
BLUE BELL      FAIR      75  70  83 N3        29.87F
DOYLESTOWN     FAIR      73  68  84 N7        29.88
WILLOW GROVE   NOT AVBL
NORTH PHILA    FAIR      78  66  66 N12       29.87F
PHILADELPHIA   FAIR      78  67  68 NW5       29.86F
$$



USA.gov is the U.S. government's official web portal to all federal, state and local government web resources and services.